Location: Arcueil
(48.7999°N, 2.3326°E)
Time: 11:20:51
(UTC+00:00)

IRIDIUM 104 - Visible Passes

Search period start: 28 September 2023 00:00
Search period end: 08 October 2023 00:00
Orbit: 776 x 779 km, 86.4° (Epoch: 27 September)

Date Brightness Start Highest point End Pass type
(mag) Time Alt. Az. Time Alt. Az. Time Alt. Az.
28 Sep 6.3 18:38:20 10° ENE 18:38:42 10° ENE 18:39:05 10° ENE visible
28 Sep 4.6 20:15:19 10° N 20:19:36 55° NE 20:19:36 55° NE visible
28 Sep 6.6 21:57:08 10° NNW 22:00:05 18° WNW 22:00:05 18° WNW visible
29 Sep 5.0 19:41:58 10° N 19:46:16 37° ENE 19:46:16 37° ENE visible
29 Sep 6.0 21:22:54 10° NNW 21:26:45 30° WNW 21:26:45 30° WNW visible
30 Sep 5.5 19:08:54 10° NNE 19:12:57 23° ENE 19:12:57 23° ENE visible
30 Sep 5.1 20:49:02 10° NNW 20:53:26 49° WNW 20:53:26 49° WNW visible
01 Oct 6.0 18:36:22 10° NE 18:39:06 14° ENE 18:39:39 14° ENE visible
01 Oct 4.3 20:15:23 10° N 20:20:08 74° N 20:20:08 74° N visible
01 Oct 6.9 21:58:02 10° NW 22:00:33 14° WNW 22:00:37 14° WNW visible
02 Oct 4.4 19:41:55 10° N 19:46:51 53° ENE 19:46:51 53° ENE visible
02 Oct 6.3 21:23:21 10° NNW 21:27:20 23° WNW 21:27:20 23° WNW visible
03 Oct 5.0 19:08:40 10° NNE 19:13:18 31° ENE 19:13:36 31° E visible
03 Oct 5.5 20:49:17 10° NNW 20:54:05 38° W 20:54:05 38° W visible
04 Oct 5.6 18:35:44 10° NNE 18:39:27 19° ENE 18:40:22 18° E visible
04 Oct 4.5 20:15:31 10° N 20:20:42 66° W 20:20:51 66° W visible
05 Oct 6.1 18:03:47 10° NE 18:05:27 11° ENE 18:07:07 10° E visible
05 Oct 4.2 19:41:56 10° N 19:47:11 74° E 19:47:39 68° SE visible
05 Oct 6.7 21:24:00 10° NW 21:27:16 17° WNW 21:28:09 16° W visible
06 Oct 4.6 19:08:32 10° N 19:13:31 43° E 19:14:30 39° ESE visible
06 Oct 6.0 20:49:39 10° NNW 20:54:02 28° W 20:54:59 26° W visible
07 Oct 5.3 18:35:24 10° NNE 18:39:45 26° ENE 18:41:23 22° ESE visible
07 Oct 5.2 20:15:42 10° NNW 20:20:43 47° W 20:21:53 40° WSW visible
